| time (UTC) | temp C | wind direction | speed KPH | gust KPH | rain 1hr cm | rain 24hr cm | rain mn cm | humidity % | barometer mb |
| 20260510171305 | 13 | 278 | 3.2 | 8.0 | 0.00 | 0.25 | 0.20 | 81 | 1011.8 |
| 20260510170804 | 12 | 300 | 1.6 | 11.3 | 0.00 | 0.25 | 0.20 | 82 | 1011.9 |
| 20260510170305 | 12 | 244 | 4.8 | 11.3 | 0.00 | 0.25 | 0.20 | 81 | 1011.9 |
| 20260510165804 | 12 | 270 | 3.2 | 11.3 | 0.00 | 0.25 | 0.20 | 82 | 1011.9 |
| 20260510165306 | 12 | 321 | 3.2 | 8.0 | 0.00 | 0.25 | 0.20 | 82 | 1011.9 |
| 20260510164804 | 12 | 299 | 3.2 | 8.0 | 0.00 | 0.25 | 0.20 | 82 | 1011.8 |
| 20260510164304 | 12 | 257 | 1.6 | 9.7 | 0.00 | 0.25 | 0.20 | 83 | 1011.9 |
| 20260510163804 | 12 | 294 | 3.2 | 9.7 | 0.00 | 0.25 | 0.20 | 83 | 1011.9 |
| 20260510163304 | 12 | 259 | 4.8 | 12.9 | 0.00 | 0.25 | 0.20 | 84 | 1011.8 |
| 20260510162804 | 12 | 310 | 3.2 | 12.9 | 0.00 | 0.25 | 0.20 | 86 | 1011.7 |
| 20260510161804 | 12 | 282 | 3.2 | 16.1 | 0.00 | 0.25 | 0.20 | 87 | 1011.7 |
| 20260510161304 | 12 | 270 | 9.7 | 24.1 | 0.00 | 0.25 | 0.20 | 86 | 1011.6 |
| 20260510160804 | 13 | 195 | 6.4 | 14.5 | 0.00 | 0.25 | 0.20 | 85 | 1011.7 |
| 20260510160305 | 13 | 215 | 3.2 | 14.5 | 0.00 | 0.25 | 0.20 | 83 | 1011.3 |
| 20260510155804 | 13 | 184 | 4.8 | 14.5 | 0.00 | 0.25 | 0.20 | 85 | 1011.5 |
| 20260510155306 | 13 | 358 | 3.2 | 12.9 | 0.03 | 0.25 | 0.20 | 86 | 1011.3 |
| 20260510154804 | 12 | 211 | 6.4 | 12.9 | 0.05 | 0.25 | 0.20 | 86 | 1011.3 |
| 20260510153305 | 12 | 146 | 3.2 | 12.9 | 0.05 | 0.25 | 0.20 | 89 | 1011.2 |
| 20260510152804 | 12 | 167 | 3.2 | 11.3 | 0.05 | 0.25 | 0.20 | 89 | 1011.3 |
| 20260510152307 | 13 | 180 | 4.8 | 11.3 | 0.05 | 0.25 | 0.20 | 89 | 1011.2 |
| 20260510151804 | 13 | 206 | 4.8 | 14.5 | 0.05 | 0.25 | 0.20 | 91 | 1011.1 |
| 20260510151304 | 12 | 213 | 4.8 | 19.3 | 0.05 | 0.25 | 0.20 | 91 | 1011.3 |
| 20260510150804 | 13 | 222 | 4.8 | 14.5 | 0.05 | 0.25 | 0.20 | 92 | 1011.1 |
| 20260510150304 | 12 | 151 | 6.4 | 11.3 | 0.05 | 0.25 | 0.20 | 92 | 1010.9 |
| 20260510145804 | 12 | 143 | 4.8 | 11.3 | 0.05 | 0.25 | 0.20 | 92 | 1010.8 |
| 20260510145306 | 12 | 188 | 4.8 | 12.9 | 0.03 | 0.25 | 0.18 | 90 | 1011.1 |
| 20260510144304 | 13 | 182 | 4.8 | 11.3 | 0.00 | 0.20 | 0.15 | 84 | 1011.0 |
| 20260510143303 | 13 | 295 | 1.6 | 8.0 | 0.00 | 0.20 | 0.15 | 88 | 1010.9 |
| 20260510142804 | 12 | 327 | 3.2 | 8.0 | 0.00 | 0.20 | 0.15 | 89 | 1010.9 |
| 20260510142306 | 12 | 306 | 3.2 | 8.0 | 0.00 | 0.20 | 0.15 | 91 | 1011.0 |
| 20260510141304 | 11 | 300 | 3.2 | 3.2 | 0.00 | 0.20 | 0.15 | 92 | 1011.0 |
| 20260510140803 | 11 | 310 | 1.6 | 3.2 | 0.00 | 0.20 | 0.15 | 91 | 1011.0 |
| 20260510140304 | 11 | 313 | 1.6 | 1.6 | 0.00 | 0.20 | 0.15 | 91 | 1011.1 |
| 20260510135804 | 11 | 313 | 1.6 | 1.6 | 0.00 | 0.20 | 0.15 | 91 | 1011.0 |
| 20260510135306 | 11 | 303 | 1.6 | 3.2 | 0.00 | 0.20 | 0.15 | 93 | 1011.2 |
| 20260510134804 | 11 | 314 | 1.6 | 8.0 | 0.00 | 0.20 | 0.15 | 92 | 1010.9 |
| 20260510134304 | 11 | 308 | 1.6 | 3.2 | 0.00 | 0.20 | 0.15 | 92 | 1011.1 |
| 20260510133804 | 11 | 212 | 3.2 | 3.2 | 0.00 | 0.20 | 0.15 | 91 | 1011.0 |
| 20260510133304 | 11 | 255 | 1.6 | 4.8 | 0.00 | 0.20 | 0.15 | 92 | 1011.1 |
| 20260510132306 | 11 | 312 | 1.6 | 4.8 | 0.00 | 0.20 | 0.15 | 93 | 1011.1 |
| 20260510131804 | 11 | 299 | 1.6 | 4.8 | 0.00 | 0.20 | 0.15 | 92 | 1011.0 |
| 20260510131305 | 11 | 202 | 1.6 | 4.8 | 0.00 | 0.20 | 0.15 | 91 | 1010.9 |
| 20260510130804 | 11 | 239 | 3.2 | 9.7 | 0.00 | 0.20 | 0.15 | 94 | 1010.8 |
| 20260510130304 | 11 | 323 | 1.6 | 9.7 | 0.00 | 0.20 | 0.15 | 92 | 1010.7 |
| 20260510125804 | 11 | 159 | 4.8 | 9.7 | 0.00 | 0.20 | 0.15 | 92 | 1010.6 |
| 20260510124804 | 10 | 167 | 1.6 | 3.2 | 0.00 | 0.20 | 0.15 | 96 | 1011.1 |
| 20260510124304 | 10 | 288 | 1.6 | 4.8 | 0.00 | 0.20 | 0.15 | 98 | 1011.0 |
| 20260510123804 | 10 | 306 | 1.6 | 4.8 | 0.00 | 0.20 | 0.15 | 98 | 1011.1 |
| 20260510123305 | 10 | 282 | 3.2 | 8.0 | 0.00 | 0.20 | 0.15 | 97 | 1011.2 |
| 20260510122804 | 10 | 227 | 3.2 | 8.0 | 0.00 | 0.20 | 0.15 | 98 | 1011.2 |
| 20260510122306 | 10 | 280 | 0.0 | 3.2 | 0.00 | 0.20 | 0.15 | 98 | 1010.9 |
| 20260510121804 | 10 | 307 | 1.6 | 3.2 | 0.00 | 0.20 | 0.15 | 98 | 1011.0 |
| 20260510121305 | 10 | 293 | 1.6 | 12.9 | 0.00 | 0.20 | 0.15 | 97 | 1011.2 |
| 20260510120804 | 10 | 248 | 3.2 | 4.8 | 0.00 | 0.20 | 0.15 | 96 | 1010.9 |
| 20260510120304 | 10 | 304 | 1.6 | 3.2 | 0.00 | 0.20 | 0.15 | 97 | 1011.1 |
| 20260510115804 | 9 | 281 | 1.6 | 4.8 | 0.00 | 0.20 | 0.15 | 97 | 1010.6 |
| 20260510115306 | 9 | 282 | 1.6 | 4.8 | 0.00 | 0.20 | 0.15 | 99 | 1010.6 |
| 20260510114805 | 9 | 282 | 1.6 | 4.8 | 0.00 | 0.20 | 0.15 | 99 | 1010.9 |
| 20260510114305 | 9 | 319 | 0.0 | 1.6 | 0.00 | 0.20 | 0.15 | 99 | 1011.1 |
| 20260510113804 | 9 | 309 | 1.6 | 1.6 | 0.00 | 0.20 | 0.15 | 99 | 1011.2 |
| 20260510113304 | 8 | 340 | 0.0 | 1.6 | 0.00 | 0.20 | 0.15 | 99 | 1010.9 |
| 20260510112804 | 8 | 315 | 1.6 | 4.8 | 0.00 | 0.20 | 0.15 | 99 | 1010.9 |
| 20260510111304 | 8 | 287 | 0.0 | 1.6 | 0.00 | 0.20 | 0.15 | 99 | 1010.4 |
| 20260510110803 | 8 | 289 | 0.0 | 1.6 | 0.00 | 0.20 | 0.15 | 99 | 1010.3 |
| 20260510105804 | 8 | 218 | 0.0 | 1.6 | 0.00 | 0.20 | 0.15 | 99 | 1010.7 |
| 20260510105306 | 8 | 295 | 0.0 | 1.6 | 0.00 | 0.20 | 0.15 | 99 | 1010.9 |
| 20260510104804 | 8 | 313 | 1.6 | 4.8 | 0.00 | 0.20 | 0.15 | 99 | 1010.5 |
| 20260510104304 | 8 | 291 | 3.2 | 3.2 | 0.00 | 0.20 | 0.15 | 99 | 1010.1 |
| 20260510103304 | 8 | 297 | 4.8 | 8.0 | 0.00 | 0.20 | 0.15 | 99 | 1009.6 |
| 20260510102804 | 8 | 348 | 0.0 | 0.0 | 0.00 | 0.20 | 0.15 | 99 | 1009.8 |
| 20260510102306 | 8 | 304 | 0.0 | 0.0 | 0.00 | 0.20 | 0.15 | 99 | 1010.0 |
| 20260510101804 | 8 | 303 | 0.0 | 3.2 | 0.00 | 0.20 | 0.15 | 99 | 1010.2 |
| 20260510100804 | 7 | 342 | 1.6 | 1.6 | 0.00 | 0.20 | 0.15 | 99 | 1010.3 |
| 20260510095804 | 7 | 342 | 0.0 | 0.0 | 0.00 | 0.20 | 0.15 | 99 | 1009.6 |
| 20260510095306 | 7 | 334 | 0.0 | 1.6 | 0.00 | 0.20 | 0.15 | 99 | 1010.0 |
| 20260510094804 | 7 | 207 | 0.0 | 1.6 | 0.00 | 0.20 | 0.15 | 99 | 1009.7 |
| 20260510094304 | 7 | 203 | 0.0 | 1.6 | 0.00 | 0.20 | 0.15 | 99 | 1009.7 |
| 20260510093804 | 7 | 290 | 0.0 | 1.6 | 0.00 | 0.20 | 0.15 | 99 | 1009.2 |
| 20260510093304 | 7 | 302 | 1.6 | 1.6 | 0.00 | 0.20 | 0.15 | 99 | 1009.5 |
| 20260510092804 | 7 | 350 | 0.0 | 1.6 | 0.03 | 0.20 | 0.15 | 99 | 1009.3 |
| 20260510092306 | 7 | 352 | 1.6 | 1.6 | 0.03 | 0.20 | 0.15 | 99 | 1009.4 |
| 20260510091803 | 7 | 351 | 0.0 | 1.6 | 0.05 | 0.20 | 0.15 | 99 | 1009.6 |
| 20260510090804 | 7 | 354 | 0.0 | 1.6 | 0.10 | 0.20 | 0.15 | 99 | 1009.5 |
| 20260510090303 | 7 | 329 | 0.0 | 0.0 | 0.13 | 0.20 | 0.15 | 99 | 1009.5 |
| 20260510085804 | 7 | 326 | 0.0 | 0.0 | 0.15 | 0.20 | 0.15 | 99 | 1009.2 |
| 20260510085306 | 7 | 328 | 0.0 | 1.6 | 0.15 | 0.20 | 0.15 | 99 | 1009.3 |
| 20260510084804 | 7 | 304 | 1.6 | 4.8 | 0.15 | 0.20 | 0.15 | 99 | 1009.3 |
| 20260510084304 | 7 | 349 | 0.0 | 0.0 | 0.15 | 0.20 | 0.15 | 99 | 1009.3 |
| 20260510083804 | 7 | 22 | 0.0 | 0.0 | 0.15 | 0.20 | 0.15 | 99 | 1009.3 |
| 20260510083304 | 7 | 21 | 0.0 | 0.0 | 0.15 | 0.20 | 0.15 | 99 | 1009.8 |
| 20260510082804 | 7 | 21 | 0.0 | 0.0 | 0.13 | 0.18 | 0.13 | 99 | 1009.8 |
| 20260510082306 | 8 | 21 | 0.0 | 0.0 | 0.13 | 0.18 | 0.13 | 99 | 1010.0 |
| 20260510081804 | 8 | 21 | 0.0 | 0.0 | 0.10 | 0.15 | 0.10 | 99 | 1010.1 |
| 20260510081304 | 8 | 309 | 0.0 | 0.0 | 0.08 | 0.13 | 0.08 | 99 | 1010.1 |
| 20260510075306 | 8 | 309 | 0.0 | 0.0 | 0.00 | 0.05 | 0.00 | 98 | 1009.6 |
| 20260510074304 | 8 | 309 | 0.0 | 0.0 | 0.00 | 0.05 | 0.00 | 98 | 1009.7 |
| 20260510073804 | 8 | 310 | 0.0 | 0.0 | 0.00 | 0.05 | 0.00 | 97 | 1009.8 |
| 20260510073304 | 8 | 309 | 0.0 | 3.2 | 0.00 | 0.05 | 0.00 | 97 | 1009.9 |
| 20260510072306 | 8 | 309 | 0.0 | 0.0 | 0.00 | 0.05 | 0.00 | 97 | 1009.9 |
| 20260510071805 | 8 | 309 | 0.0 | 1.6 | 0.00 | 0.05 | 0.00 | 97 | 1009.9 |
| 20260510071304 | 8 | 309 | 0.0 | 1.6 | 0.00 | 0.05 | 0.00 | 97 | 1010.1 |
| 20260510070804 | 8 | 310 | 0.0 | 1.6 | 0.00 | 0.05 | 0.00 | 96 | 1010.0 |
| 20260510065803 | 8 | 272 | 0.0 | 1.6 | 0.00 | 0.05 | 0.00 | 96 | 1010.0 |
| 20260510065306 | 8 | 272 | 1.6 | 3.2 | 0.00 | 0.05 | 0.00 | 96 | 1010.0 |
| 20260510064304 | 8 | 322 | 0.0 | 0.0 | 0.00 | 0.05 | 0.00 | 97 | 1009.7 |
| 20260510063304 | 8 | 312 | 0.0 | 0.0 | 0.00 | 0.05 | 0.00 | 97 | 1009.7 |
| 20260510062805 | 8 | 312 | 0.0 | 4.8 | 0.00 | 0.05 | 0.00 | 96 | 1009.6 |
| 20260510062306 | 8 | 308 | 3.2 | 3.2 | 0.00 | 0.05 | 0.00 | 96 | 1009.8 |
| 20260510061804 | 8 | 357 | 1.6 | 3.2 | 0.00 | 0.05 | 0.00 | 96 | 1009.9 |
| 20260510061304 | 8 | 332 | 1.6 | 3.2 | 0.00 | 0.05 | 0.00 | 96 | 1009.7 |
| 20260510060804 | 8 | 332 | 1.6 | 3.2 | 0.00 | 0.05 | 0.00 | 95 | 1009.8 |
| 20260510060303 | 8 | 227 | 1.6 | 3.2 | 0.00 | 0.05 | 0.00 | 95 | 1009.9 |
| 20260510055804 | 8 | 346 | 0.0 | 4.8 | 0.00 | 0.05 | 0.00 | 95 | 1009.9 |
| 20260510055307 | 8 | 258 | 1.6 | 8.0 | 0.00 | 0.05 | 0.00 | 95 | 1009.9 |
| 20260510054804 | 8 | 11 | 1.6 | 4.8 | 0.00 | 0.05 | 0.00 | 95 | 1010.1 |
| 20260510054304 | 8 | 294 | 1.6 | 3.2 | 0.00 | 0.05 | 0.00 | 95 | 1010.1 |
| 20260510053804 | 8 | 0 | 1.6 | 4.8 | 0.00 | 0.05 | 0.00 | 96 | 1010.0 |
| 20260510052804 | 8 | 158 | 4.8 | 9.7 | 0.00 | 0.05 | 0.00 | 96 | 1010.1 |
| 20260510052306 | 8 | 179 | 3.2 | 9.7 | 0.00 | 0.05 | 0.00 | 96 | 1010.1 |
| 20260510051804 | 8 | 224 | 3.2 | 16.1 | 0.00 | 0.05 | 0.00 | 96 | 1010.0 |
| 20260510051304 | 8 | 154 | 8.0 | 12.9 | 0.00 | 0.05 | 0.00 | 95 | 1009.9 |
| 20260510050304 | 8 | 109 | 3.2 | 12.9 | 0.00 | 0.05 | 0.00 | 95 | 1010.2 |
| 20260510045804 | 8 | 188 | 3.2 | 8.0 | 0.03 | 0.05 | 0.00 | 94 | 1010.3 |
| 20260510045306 | 8 | 242 | 1.6 | 12.9 | 0.03 | 0.05 | 0.00 | 94 | 1010.2 |
| 20260510044803 | 8 | 184 | 3.2 | 8.0 | 0.03 | 0.05 | 0.00 | 95 | 1010.1 |
| 20260510043809 | 8 | 318 | 1.6 | 4.8 | 0.03 | 0.05 | 0.00 | 95 | 1009.9 |
| 20260510043304 | 8 | 302 | 4.8 | 11.3 | 0.03 | 0.05 | 0.00 | 95 | 1009.8 |
| 20260510042804 | 8 | 349 | 1.6 | 8.0 | 0.03 | 0.05 | 0.00 | 95 | 1009.8 |
| 20260510042306 | 8 | 184 | 1.6 | 9.7 | 0.03 | 0.05 | 0.00 | 95 | 1009.7 |
| 20260510041804 | 8 | 188 | 3.2 | 8.0 | 0.03 | 0.05 | 0.00 | 95 | 1009.8 |
| 20260510040823 | 8 | 134 | 1.6 | 8.0 | 0.03 | 0.05 | 0.00 | 95 | 1009.7 |
| 20260510040305 | 8 | 179 | 3.2 | 11.3 | 0.03 | 0.05 | 0.00 | 94 | 1009.8 |
| 20260510035803 | 8 | 146 | 8.0 | 11.3 | 0.00 | 0.03 | 0.03 | 94 | 1010.1 |
| 20260510035306 | 8 | 141 | 1.6 | 4.8 | 0.00 | 0.03 | 0.03 | 94 | 1010.0 |
| 20260510034804 | 8 | 9 | 0.0 | 3.2 | 0.00 | 0.03 | 0.03 | 94 | 1010.2 |
| 20260510034304 | 8 | 286 | 1.6 | 3.2 | 0.00 | 0.03 | 0.03 | 94 | 1010.3 |
| 20260510033804 | 8 | 132 | 3.2 | 9.7 | 0.00 | 0.03 | 0.03 | 94 | 1010.1 |
| 20260510033304 | 8 | 343 | 1.6 | 8.0 | 0.00 | 0.03 | 0.03 | 94 | 1010.1 |
| 20260510032306 | 8 | 148 | 1.6 | 8.0 | 0.00 | 0.03 | 0.03 | 94 | 1010.0 |
| 20260510031803 | 8 | 105 | 3.2 | 4.8 | 0.00 | 0.03 | 0.03 | 94 | 1010.0 |
| 20260510031303 | 8 | 289 | 0.0 | 4.8 | 0.00 | 0.03 | 0.03 | 94 | 1010.0 |
| 20260510030803 | 8 | 187 | 1.6 | 4.8 | 0.00 | 0.03 | 0.03 | 94 | 1009.9 |
| 20260510030304 | 7 | 114 | 1.6 | 3.2 | 0.00 | 0.03 | 0.03 | 94 | 1010.0 |
| 20260510025804 | 8 | 17 | 0.0 | 3.2 | 0.00 | 0.03 | 0.03 | 94 | 1010.3 |
| 20260510025306 | 8 | 273 | 1.6 | 8.0 | 0.00 | 0.03 | 0.03 | 93 | 1010.4 |
| 20260510024804 | 8 | 56 | 3.2 | 8.0 | 0.00 | 0.03 | 0.03 | 93 | 1010.3 |
| 20260510024304 | 8 | 188 | 0.0 | 12.9 | 0.00 | 0.03 | 0.03 | 94 | 1010.4 |
| 20260510023304 | 8 | 158 | 1.6 | 8.0 | 0.00 | 0.03 | 0.03 | 93 | 1010.4 |
| 20260510022804 | 8 | 282 | 1.6 | 9.7 | 0.00 | 0.03 | 0.03 | 93 | 1010.4 |
| 20260510022306 | 8 | 252 | 3.2 | 9.7 | 0.00 | 0.03 | 0.03 | 93 | 1010.2 |
| 20260510021804 | 8 | 179 | 1.6 | 4.8 | 0.00 | 0.03 | 0.03 | 93 | 1010.2 |
| 20260510020303 | 8 | 154 | 4.8 | 12.9 | 0.00 | 0.03 | 0.03 | 93 | 1010.4 |
| 20260510015804 | 8 | 232 | 3.2 | 8.0 | 0.00 | 0.03 | 0.03 | 93 | 1010.4 |
| 20260510015306 | 7 | 169 | 3.2 | 4.8 | 0.00 | 0.03 | 0.03 | 93 | 1010.5 |
| 20260510014803 | 8 | 117 | 0.0 | 3.2 | 0.00 | 0.03 | 0.03 | 93 | 1010.5 |
| 20260510014304 | 8 | 289 | 1.6 | 8.0 | 0.00 | 0.03 | 0.03 | 92 | 1010.6 |
| 20260510013804 | 8 | 345 | 1.6 | 4.8 | 0.00 | 0.03 | 0.03 | 92 | 1010.6 |
| 20260510013303 | 8 | 139 | 1.6 | 3.2 | 0.00 | 0.03 | 0.03 | 92 | 1010.7 |
| 20260510012803 | 8 | 141 | 1.6 | 8.0 | 0.00 | 0.03 | 0.03 | 92 | 1010.8 |
| 20260510011303 | 8 | 182 | 3.2 | 9.7 | 0.00 | 0.03 | 0.03 | 91 | 1010.9 |
| 20260510005804 | 8 | 170 | 1.6 | 4.8 | 0.00 | 0.03 | 0.03 | 92 | 1010.7 |
| 20260510004804 | 8 | 197 | 1.6 | 4.8 | 0.00 | 0.03 | 0.03 | 92 | 1010.8 |
| 20260510004303 | 7 | 103 | 1.6 | 3.2 | 0.00 | 0.03 | 0.03 | 92 | 1010.8 |
| 20260510003804 | 8 | 239 | 1.6 | 3.2 | 0.00 | 0.03 | 0.03 | 93 | 1010.8 |
| 20260510003304 | 7 | 317 | 1.6 | 3.2 | 0.00 | 0.03 | 0.03 | 92 | 1010.6 |
| 20260510002804 | 7 | 315 | 0.0 | 3.2 | 0.00 | 0.03 | 0.03 | 92 | 1010.5 |
| 20260510002306 | 7 | 131 | 0.0 | 3.2 | 0.00 | 0.03 | 0.03 | 92 | 1010.5 |
| 20260510001804 | 7 | 118 | 1.6 | 3.2 | 0.00 | 0.03 | 0.03 | 92 | 1010.3 |
| 20260510001304 | 7 | 234 | 1.6 | 1.6 | 0.00 | 0.03 | 0.03 | 92 | 1010.5 |
| 20260510000804 | 7 | 316 | 0.0 | 0.0 | 0.00 | 0.03 | 0.03 | 92 | 1010.6 |
| 20260510000304 | 7 | 316 | 0.0 | 0.0 | 0.00 | 0.03 | 0.03 | 92 | 1010.7 |
| 20260509235804 | 7 | 315 | 0.0 | 1.6 | 0.00 | 0.03 | 0.03 | 92 | 1010.5 |
| 20260509235306 | 7 | 342 | 0.0 | 1.6 | 0.00 | 0.03 | 0.03 | 91 | 1010.4 |
| 20260509234304 | 8 | 59 | 1.6 | 3.2 | 0.00 | 0.03 | 0.03 | 91 | 1010.5 |
| 20260509233803 | 8 | 126 | 3.2 | 3.2 | 0.00 | 0.03 | 0.03 | 90 | 1010.4 |
| 20260509233304 | 8 | 11 | 0.0 | 4.8 | 0.00 | 0.03 | 0.03 | 90 | 1010.4 |
| 20260509232804 | 8 | 310 | 0.0 | 8.0 | 0.00 | 0.03 | 0.03 | 90 | 1010.4 |
| 20260509232306 | 8 | 118 | 1.6 | 4.8 | 0.00 | 0.03 | 0.03 | 91 | 1010.3 |
| 20260509231803 | 8 | 124 | 1.6 | 4.8 | 0.00 | 0.03 | 0.03 | 91 | 1010.4 |
| 20260509231304 | 8 | 211 | 1.6 | 4.8 | 0.00 | 0.03 | 0.03 | 91 | 1010.4 |
| 20260509230304 | 8 | 268 | 1.6 | 4.8 | 0.00 | 0.03 | 0.03 | 91 | 1010.4 |
| 20260509225804 | 8 | 177 | 1.6 | 4.8 | 0.00 | 0.03 | 0.03 | 91 | 1010.2 |
| 20260509225306 | 8 | 349 | 1.6 | 1.6 | 0.00 | 0.03 | 0.03 | 91 | 1010.1 |
| 20260509223804 | 8 | 297 | 1.6 | 4.8 | 0.00 | 0.03 | 0.03 | 91 | 1010.2 |
| 20260509223304 | 8 | 80 | 1.6 | 4.8 | 0.00 | 0.03 | 0.03 | 90 | 1010.4 |
| 20260509222804 | 8 | 236 | 1.6 | 3.2 | 0.00 | 0.03 | 0.03 | 89 | 1010.4 |
| 20260509222307 | 8 | 199 | 1.6 | 3.2 | 0.00 | 0.03 | 0.03 | 90 | 1010.5 |
| 20260509221804 | 8 | 13 | 1.6 | 3.2 | 0.00 | 0.03 | 0.03 | 89 | 1010.4 |
| 20260509215804 | 8 | 305 | 0.0 | 3.2 | 0.00 | 0.03 | 0.03 | 90 | 1010.7 |
| 20260509214304 | 8 | 317 | 1.6 | 3.2 | 0.00 | 0.03 | 0.03 | 92 | 1010.7 |
| 20260509213804 | 8 | 163 | 1.6 | 3.2 | 0.00 | 0.03 | 0.03 | 92 | 1010.4 |
| 20260509213304 | 7 | 313 | 0.0 | 3.2 | 0.00 | 0.03 | 0.03 | 92 | 1010.8 |
| 20260509212804 | 7 | 220 | 0.0 | 3.2 | 0.00 | 0.03 | 0.03 | 93 | 1010.8 |
| 20260509211803 | 7 | 93 | 1.6 | 3.2 | 0.03 | 0.03 | 0.03 | 93 | 1011.0 |
| 20260509210805 | 7 | 331 | 0.0 | 1.6 | 0.03 | 0.03 | 0.03 | 96 | 1011.1 |
| 20260509210304 | 7 | 303 | 0.0 | 8.0 | 0.03 | 0.03 | 0.03 | 96 | 1011.0 |
| 20260509205804 | 7 | 343 | 1.6 | 3.2 | 0.03 | 0.03 | 0.03 | 96 | 1011.1 |
| 20260509205307 | 7 | 331 | 0.0 | 0.0 | 0.03 | 0.03 | 0.03 | 96 | 1011.1 |
| 20260509204804 | 7 | 328 | 0.0 | 3.2 | 0.03 | 0.03 | 0.03 | 95 | 1011.0 |
| 20260509203804 | 7 | 254 | 0.0 | 4.8 | 0.03 | 0.03 | 0.03 | 95 | 1011.1 |
| 20260509203304 | 7 | 284 | 1.6 | 4.8 | 0.03 | 0.03 | 0.03 | 94 | 1011.2 |
| 20260509202804 | 7 | 311 | 1.6 | 1.6 | 0.03 | 0.03 | 0.03 | 96 | 1011.3 |
| 20260509202306 | 7 | 319 | 0.0 | 0.0 | 0.03 | 0.03 | 0.03 | 95 | 1011.0 |
| 20260509201804 | 7 | 319 | 0.0 | 0.0 | 0.00 | 0.00 | 0.00 | 95 | 1011.1 |
| 20260509200304 | 7 | 327 | 0.0 | 1.6 | 0.00 | 0.00 | 0.00 | 93 | 1011.3 |
| 20260509194803 | 8 | 306 | 0.0 | 1.6 | 0.00 | 0.00 | 0.00 | 92 | 1011.2 |
| 20260509193804 | 8 | 295 | 0.0 | 3.2 | 0.00 | 0.00 | 0.00 | 91 | 1011.1 |
| 20260509193304 | 7 | 281 | 1.6 | 3.2 | 0.00 | 0.00 | 0.00 | 91 | 1011.4 |
| 20260509192804 | 7 | 152 | 1.6 | 8.0 | 0.00 | 0.00 | 0.00 | 90 | 1011.4 |
| 20260509192306 | 7 | 163 | 3.2 | 4.8 | 0.00 | 0.00 | 0.00 | 89 | 1011.4 |
| 20260509191804 | 7 | 152 | 3.2 | 8.0 | 0.00 | 0.00 | 0.00 | 88 | 1011.5 |
| 20260509190304 | 8 | 60 | 1.6 | 8.0 | 0.00 | 0.00 | 0.00 | 86 | 1011.7 |
| 20260509185804 | 8 | 144 | 4.8 | 8.0 | 0.00 | 0.00 | 0.00 | 85 | 1011.8 |
| 20260509184803 | 8 | 115 | 4.8 | 11.3 | 0.00 | 0.00 | 0.00 | 86 | 1011.7 |
| 20260509184303 | 8 | 174 | 8.0 | 11.3 | 0.00 | 0.00 | 0.00 | 86 | 1011.8 |
| 20260509183804 | 8 | 78 | 3.2 | 8.0 | 0.00 | 0.00 | 0.00 | 86 | 1012.0 |
| 20260509183304 | 8 | 51 | 1.6 | 9.7 | 0.00 | 0.00 | 0.00 | 87 | 1012.1 |
| 20260509182804 | 8 | 180 | 1.6 | 8.0 | 0.00 | 0.00 | 0.00 | 88 | 1012.0 |
| 20260509182306 | 8 | 99 | 4.8 | 11.3 | 0.00 | 0.00 | 0.00 | 87 | 1012.0 |
| 20260509181304 | 8 | 158 | 3.2 | 11.3 | 0.00 | 0.00 | 0.00 | 87 | 1012.2 |
| 20260509180304 | 8 | 146 | 4.8 | 11.3 | 0.00 | 0.00 | 0.00 | 87 | 1012.2 |
| 20260509175804 | 8 | 130 | 4.8 | 11.3 | 0.00 | 0.00 | 0.00 | 87 | 1012.2 |
| 20260509175306 | 8 | 186 | 3.2 | 9.7 | 0.00 | 0.00 | 0.00 | 86 | 1012.2 |
| 20260509174804 | 8 | 149 | 3.2 | 9.7 | 0.00 | 0.00 | 0.00 | 85 | 1012.3 |
| 20260509174304 | 8 | 178 | 3.2 | 14.5 | 0.00 | 0.00 | 0.00 | 84 | 1012.5 |
| 20260509173803 | 8 | 44 | 4.8 | 16.1 | 0.00 | 0.00 | 0.00 | 84 | 1012.0 |
| 20260509173303 | 9 | 113 | 4.8 | 11.3 | 0.00 | 0.00 | 0.00 | 81 | 1012.2 |
| 20260509172804 | 9 | 150 | 4.8 | 19.3 | 0.00 | 0.00 | 0.00 | 78 | 1012.2 |
| 20260509172306 | 9 | 225 | 3.2 | 19.3 | 0.00 | 0.00 | 0.00 | 76 | 1012.2 |
| 20260509171804 | 10 | 137 | 6.4 | 20.9 | 0.00 | 0.00 | 0.00 | 74 | 1012.3 |